Rbgn^[z[y[W
メイン
   新天体発見情報
     Comet P/2013 A2 = P/2021 A8 (Scotti)
投稿するにはまず登録を

スレッド表示 | 古いものから 前のトピック | 次のトピック | 下へ
投稿者 スレッド
佐藤裕久
投稿日時: 2021-1-25 18:39
モデレータ
登録日: 2005-6-12
居住地: 日本
投稿: 2626
オンライン
Comet P/2013 A2 = P/2021 A8 (Scotti)

E. Schwab (Egelsbach, ドイツ)の通報によると、1月13日UT、スペイン、Calar Altoにある
0.8-m f/3 Schmidt反射望遠鏡で得た画像からP/2013 A2 (CBET 3376を参照)を検出した。
この彗星は14日と15日に得た60秒露出12枚のスタックでは恒星状であった。しかし、1月14.0日
UTは、2".9のシーイングでこの彗星の頭部は4".1 (半値全幅:FWHM)であった。

検出位置は次のとおり、

     2021 UT             R.A. (2000) Decl.       Mag.   Observer
     Jan. 14.00612    8 23 30.00   +24 34 51.7   19.8   Schwab
          14.01839    8 23 29.48   +24 34 52.7   19.7     "
          14.03064    8 23 28.92   +24 34 53.8   19.7     "
          15.00613    8 22 48.91   +24 36 20.2   19.7     "
          15.01839    8 22 48.36   +24 36 21.5   19.3     "
          15.03066    8 22 47.82   +24 36 22.7   19.5     "

NK 3665およびICQ's 2020 Comet Handbookの中野主一氏の予報に対し、Delta(T)  
は、-0.18 dayであった。MPC 84024のG. V. Williamsの予報に対するDelta(T)は、
-0.26 dayであった。彗星年表2020の佐藤裕久の予報に対する修正値は、Delta(T) =
-0.06 dayであった。

MPCの連結軌道要素と位置推算表は次のとおり、

Orbital elements:
    P/2013 A2 (Scotti)                                                          
Epoch 2013 Jan. 28.0 TT = JDT 2456320.5                                         
T 2013 Feb. 7.28004 TT                                  Rudenko                 
q   2.1773745            (2000.0)            P               Q                  
n   0.12313797     Peri.  134.49923     -0.64744077     -0.76210389             
a   4.0013640      Node   355.84299     +0.68151229     -0.57645687             
e   0.4558419      Incl.    3.36610     +0.34111793     -0.29477982             
P   8.00                                                                        
From 97 observations 2013 Jan. 6-2021 Jan. 15, mean residual 0".5.              
                                                                                
    P/2013 A2 (Scotti)                                                          
Epoch 2021 Mar. 7.0 TT = JDT 2459280.5                                          
T 2021 Feb. 15.49720 TT                                 Rudenko                 
q   2.1899474            (2000.0)            P               Q                  
n   0.12256436     Peri.  134.52764     -0.64739813     -0.76213996             
a   4.0138387      Node   355.81134     +0.68158147     -0.57643514             
e   0.4544007      Incl.    3.36129     +0.34106063     -0.29472905             
P   8.04                                                                        
From 97 observations 2013 Jan. 6-2021 Jan. 15, mean residual 0".5.              
                                                                                
    P/2013 A2 (Scotti)                                                          
Epoch 2029 Mar. 5.0 TT = JDT 2462200.5                                          
T 2029 Feb. 24.41851 TT                                 Rudenko                 
q   2.1786852            (2000.0)            P               Q                  
n   0.12317132     Peri.  134.63038     -0.64741587     -0.76212428             
a   4.0006415      Node   355.70978     +0.68158690     -0.57640408             
e   0.4554161      Incl.    3.36378     +0.34101611     -0.29483032             
P   8.00                                                                        
From 97 observations 2013 Jan. 6-2021 Jan. 15, mean residual 0".5.              
                                                                                
    P/2013 A2 (Scotti)                                                          
Epoch 2020 Dec. 17.0 TT = JDT 2459200.5                                         
T 2021 Feb. 15.51204 TT                                 Rudenko                 
q   2.1899394            (2000.0)            P               Q                  
n   0.12256406     Peri.  134.53190     -0.64747094     -0.76207812             
a   4.0138453      Node   355.81256     +0.68152630     -0.57650094             
e   0.4544037      Incl.    3.36124     +0.34103268     -0.29476027             
P   8.04                                                                        
From 97 observations 2013 Jan. 6-2021 Jan. 15, mean residual 0".5.              

(MPEC 2021-B21、CBET 4919、oaa-comet 1503)

スレッド表示 | 古いものから 前のトピック | 次のトピック | トップ

投稿するにはまず登録を
 
© 1999 Tsutomu Seki.